TimeAKST,TemperatureF,Dew PointF,Humidity,Sea Level PressureIn,VisibilityMPH,Wind Direction,Wind SpeedMPH,Gust SpeedMPH,PrecipitationIn,Events,Conditions,WindDirDegrees,DateUTC
12:56 AM,-22.0,-27.9,74,30.31,10.0,Calm,Calm,-,N/A,,Clear,0,2012-11-25 09:56:00
1:56 AM,-23.1,-29.9,70,30.32,10.0,Calm,Calm,-,N/A,,Clear,0,2012-11-25 10:56:00
2:56 AM,-23.1,-29.9,70,30.34,10.0,Calm,Calm,-,N/A,,Clear,0,2012-11-25 11:56:00
3:56 AM,-23.1,-29.0,74,30.34,10.0,Calm,Calm,-,N/A,,Clear,0,2012-11-25 12:56:00
4:56 AM,-23.1,-29.9,70,30.36,10.0,Calm,Calm,-,N/A,,Clear,0,2012-11-25 13:56:00
5:56 AM,-24.0,-29.0,77,30.37,10.0,Calm,Calm,-,N/A,,Clear,0,2012-11-25 14:56:00
6:56 AM,-24.0,-29.9,74,30.38,10.0,Calm,Calm,-,N/A,,Clear,0,2012-11-25 15:56:00
7:56 AM,-25.1,-32.1,70,30.40,10.0,Calm,Calm,-,N/A,,Clear,0,2012-11-25 16:56:00
8:56 AM,-25.1,-31.0,74,30.40,10.0,Calm,Calm,-,N/A,,Clear,0,2012-11-25 17:56:00
9:56 AM,-26.0,-32.1,73,30.41,10.0,Calm,Calm,-,N/A,,Clear,0,2012-11-25 18:56:00
10:56 AM,-25.1,-31.0,74,30.42,7.0,Calm,Calm,-,N/A,,Clear,0,2012-11-25 19:56:00
11:56 AM,-22.0,-27.9,74,30.43,10.0,Calm,Calm,-,N/A,,Clear,0,2012-11-25 20:56:00
12:56 PM,-18.9,-26.0,70,30.45,10.0,Calm,Calm,-,N/A,,Clear,0,2012-11-25 21:56:00
1:56 PM,-16.1,-23.1,71,30.45,10.0,Calm,Calm,-,N/A,,Clear,0,2012-11-25 22:56:00
2:56 PM,-18.0,-23.1,78,30.46,10.0,Calm,Calm,-,N/A,,Clear,0,2012-11-25 23:56:00
3:56 PM,-20.0,-26.0,74,30.45,10.0,Calm,Calm,-,N/A,,Clear,0,2012-11-26 00:56:00
4:56 PM,-20.0,-27.0,70,30.46,10.0,Calm,Calm,-,N/A,,Clear,0,2012-11-26 01:56:00
5:56 PM,-22.0,-27.9,74,30.47,10.0,Calm,Calm,-,N/A,,Clear,0,2012-11-26 02:56:00
6:56 PM,-23.1,-29.0,74,30.48,10.0,Calm,Calm,-,N/A,,Clear,0,2012-11-26 03:56:00
7:56 PM,-23.1,-29.0,74,30.48,10.0,Calm,Calm,-,N/A,,Clear,0,2012-11-26 04:56:00
8:56 PM,-23.1,-29.9,70,30.49,10.0,Calm,Calm,-,N/A,,Clear,0,2012-11-26 05:56:00
9:56 PM,-24.0,-29.9,74,30.49,10.0,Calm,Calm,-,N/A,,Clear,0,2012-11-26 06:56:00
10:56 PM,-24.0,-29.9,74,30.50,8.0,Calm,Calm,-,N/A,,Clear,0,2012-11-26 07:56:00
11:56 PM,-23.1,-29.9,70,30.50,10.0,Calm,Calm,-,N/A,,Clear,0,2012-11-26 08:56:00